Other Surface Observations
Issued by NWS

Home | Current Version | Previous Version | Text Only | Print | Product List | Glossary On
Versions: 1 2 3 4 5 6 7 8 9 10 11 12 13 14 15 16 17 18 19 20 21 22 23 24 25 26 27 28 29 30 31 32 33 34 35 36 37 38 39 40 41 42 43 44 45 46 47 48 49 50
787
SXUS52 KTAE 191918
OSOTAE
OSOTAE
North Florida/South Alabama/Southwest Georgia Weather Roundup
National Weather Service Tallahassee Florida
200 PM EST THU JAN 19 2017

Note: "fair" indicates few or no clouds below 12,000 feet with no
significant weather and/or obstructions to visibility.

!FLZ017-115-028-034-025-192000
...North Florida...

CITY           SKY/WX    TMP DP  RH WIND       PRES   REMARKS
TALLAHASSEE    PTSUNNY   73  66  78 S12       29.98F
APALACHICOLA   PTSUNNY   74  70  87 SE10      29.98F
PERRY          MOSUNNY   76  65  66 S5        30.00F
CROSS CITY     PTSUNNY   77  64  65 S6        30.00F
JACKSONVILLE   PTSUNNY   75  59  57 CALM      29.98F
$$

!FLZ112-006-005-002-011-192000
...Florida Panhandle...

CITY           SKY/WX    TMP DP  RH WIND       PRES   REMARKS
MARIANNA       CLOUDY    77  63  61 SW12G17   29.94F
BONIFAY        NOT AVBL
PANAMA CITY NW PTSUNNY   76  67  73 SE10      29.96F
TYNDALL AFB    MOSUNNY   77  67  71 S14       29.97F
TYND DRONE APT FAIR      76  68  77 S14G23    29.96F
DE FUNIAK SPR  MOCLDY    76  63  64 S15       29.95F
EGLIN AFB      PTSUNNY   75  68  77 S14       29.94F
DESTIN         SUNNY     78  70  76 SE8       29.94F
HURLBURT       MOSUNNY   75  57  53 S10       29.93F
CRESTVIEW      PTSUNNY   76  64  66 S15       29.94F
PENSACOLA      PTSUNNY   76  68  76 S18G25    29.93F
$$

!ALZ063-066-192000
...South Alabama...

CITY           SKY/WX    TMP DP  RH WIND       PRES   REMARKS
DOTHAN         CLOUDY    75  65  70 SW8       29.98F
OZARK CAIRNS   CLOUDY    75  65  71 VRB7      29.94F
FT RUCKER HELI CLOUDY    74  64  71 SW8       29.94F
RUCKER HELI 3  NOT AVBL
RUCKER HELI 2  FAIR      75  64  68 VRB6      29.94F
FLORALA APT    MOSUNNY   78  62  57 S13G22    29.93F
ANDALUSIA      CLOUDY    78  64  61 VRB5      29.91F
TROY           LGT RAIN  73  64  73 S9G18     29.94F
EUFALA         FAIR      78  62  57 S10       29.93F
MOBILE         CLOUDY    75  67  76 S20G26    29.91F
$$

!GAZ120>161-192000
...Southwest and South Central Georgia...

CITY           SKY/WX    TMP DP  RH WIND       PRES   REMARKS
THOMASVILLE    FAIR      77  64  65 SW7       29.99F
BAINBRIDGE     PTSUNNY   77  64  65 SW6       29.96F
MOODY AFB      MOSUNNY   76  61  59 SW7       29.97F
VALDOSTA       MOSUNNY   71  64  78 S3        29.99F
MOULTRIE       MOSUNNY   75  61  60 SE7       29.99F
BLAKELY        MOSUNNY   77  63  61 S5        29.97F
ALBANY         PTSUNNY   75  61  61 S7        29.98F
TIFTON         PTSUNNY   74  61  64 S5        29.98F
FITZGERALD     FAIR      75  62  63 S6        30.00F
CORDELE        FAIR      77  61  56 S6        29.99F
AMERICUS       FAIR      73  55  53 S5        29.98F
HOMERVILLE     FAIR      77  61  57 CALM      29.99F
$$

!GMZ750-755-770-775-192000
...Coastal and Buoy Obs...

STATION/POSITION TIME  TEMP    WIND        PRES    VSBY  WAVE
                       AIR SEA DIR/SP/G                  HT/PER
                 (UTC) (F)     (DEG/KT/KT) (MB)    (MI)  (FT/S)
KEATON BEACH     1900   66     190/  8/  9 1015.4F
CEDAR KEY        1900   69     220/  5/  6 1016.4F
C TOWER          1900   69     160/ 11/ 12 1015.7F
APALACHICOLA BUO 1850   74 73  160/ 12/ 16 1015.4F         1/ 2
PANAMA CITY BUOY 1850   75 75              1015.1F         2/ 3
MOBILE BUOY      NOT AVBL
ORANGE BCH AL BU 1850   69 66  200/ 10/ 10 1013.5F         2/ 6
$$




USA.gov is the U.S. government's official web portal to all federal, state and local government web resources and services.